P/2013 EW90 ( Tenagra )

Japanese version
Home page
Updated on September 21, 2014

---------------------------------------------------------------------

* Profile

Discovery Date March 3, 2013
Magnitude 19.0 mag
Discoverer M. Schwartz and P. R. Holvorcem (Tenagra Observatories near Nogales, AZ, U.S.A.)

* Pictures

* Orbital Elements

Epoch 2012 Sept. 30.0 TT = JDT 2456200.5
T 2012 Oct. 11.66955 TT                                 MPC
q   3.3002997            (2000.0)            P               Q
n   0.11849749     Peri.  346.00063     -0.84477836     -0.50494004
a   4.1051588      Node   160.36251     +0.52754066     -0.84136461
e   0.1960604      Incl.   31.81312     +0.08972389     +0.19272041
P   8.32
From 59 observations 2013 Feb. 16-2014 May 17, mean residual 0".4.

* Magnitudes Graph

        m1 = 12.0 + 5 log d + 10.0 log r

---------------------------------------------------------------------

The orbital elements are published on M.P.E.C. 2014-K54.
The magnitudes graphs are made with Comet for Windows.

---------------------------------------------------------------------

Copyright(C) Seiichi Yoshida (comet@aerith.net). All rights reserved.